This is the latest recevied weather packets stored in our database for station/object BM2MWA-13. If no packets are shown the sender has not sent any weather packets the latest 10 day(s).
| Time | Temp. | Humidity | Pressure | Rain* | Wind** | Luminosity | Snow |
|---|---|---|---|---|---|---|---|
| 1777679823 | 23.89° C | 69% | 1010.2 hPa | 0 mm | - | - | - |
| 1777679224 | 23.33° C | 71% | 1010.2 hPa | 0 mm | - | - | - |
| 1777678623 | 23.33° C | 71% | 1010.2 hPa | 0 mm | - | - | - |
| 1777678024 | 23.33° C | 72% | 1010.1 hPa | 0 mm | - | - | - |
| 1777677424 | 22.78° C | 73% | 1010.1 hPa | 0 mm | - | - | - |
| 1777676823 | 22.22° C | 74% | 1009.9 hPa | 0 mm | - | - | - |
| 1777676223 | 22.22° C | 74% | 1009.7 hPa | 0 mm | - | - | - |
| 1777675623 | 22.22° C | 76% | 1009.6 hPa | 0 mm | - | - | - |
| 1777675023 | 21.67° C | 76% | 1009.6 hPa | 0 mm | - | - | - |
| 1777674424 | 21.67° C | 77% | 1009.7 hPa | 0 mm | - | - | - |
| 1777673823 | 22.22° C | 76% | 1009.6 hPa | 0 mm | - | - | - |
| 1777673224 | 21.67° C | 78% | 1009.5 hPa | 0 mm | - | - | - |
| 1777672624 | 21.67° C | 78% | 1009.3 hPa | 0 mm | - | - | - |
| 1777672024 | 21.67° C | 76% | 1009.2 hPa | 0 mm | - | - | - |
| 1777671423 | 21.67° C | 76% | 1009.2 hPa | 0 mm | - | - | - |
| 1777670824 | 21.67° C | 75% | 1009.1 hPa | 0 mm | - | - | - |
| 1777670223 | 22.22° C | 75% | 1009 hPa | 0 mm | - | - | - |
| 1777669623 | 22.22° C | 75% | 1009.1 hPa | 0 mm | - | - | - |
| 1777669023 | 22.22° C | 76% | 1009.1 hPa | 0 mm | - | - | - |
| 1777668424 | 21.67° C | 78% | 1009.1 hPa | 0 mm | - | - | - |
| 1777667824 | 21.67° C | 79% | 1009.1 hPa | 0 mm | - | - | - |
| 1777667225 | 21.67° C | 78% | 1009.1 hPa | 0 mm | - | - | - |
| 1777666624 | 21.67° C | 79% | 1009.1 hPa | 0 mm | - | - | - |
| 1777666024 | 22.22° C | 76% | 1009.3 hPa | 0 mm | - | - | - |
| 1777665424 | 22.22° C | 75% | 1009.3 hPa | 0 mm | - | - | - |
* Rain latest hour (hover to see other rain measurements)
** Current wind speed in m/s (hover to see current wind gust speed)